Regional Weather Roundup
Issued by NWS

Home | Current Version | Previous Version | Graphics & Text | Print | Product List | Glossary On
Versions: 1 2 3 4 5 6 7 8 9 10 11 12 13 14 15 16 17 18 19 20 21 22 23 24 25 26 27 28 29 30 31 32 33 34 35 36 37 38 39 40 41 42 43 44 45 46 47 48 49 50
000
ASUS43 KMPX 250910
RWRMN
WEATHER ROUNDUP FOR MINNESOTA
NATIONAL WEATHER SERVICE TWIN CITIES/CHANHASSEN MN
300 AM CST SUN FEB 25 2018


NOTE: "FAIR" INDICATES FEW OR NO CLOUDS BELOW 12,000 FEET WITH NO
SIGNIFICANT WEATHER AND/OR OBSTRUCTIONS TO VISIBILITY. N/A MEANS
CURRENT SKY AND/OR WEATHER CONDITIONS ARE NOT AVAILABLE.

MNZ060>063-068>070-251000-
   Twin Cities Metro

CITY           SKY/WX    TMP DP  RH WIND       PRES   REMARKS
TWIN CITIES    CLOUDY    17  15  92 W15G25    29.53R WCI   2
ST PAUL        CLOUDY    19  14  81 W13G20    29.54S WCI   6
CRYSTAL        CLOUDY    17  13  84 W15G22    29.52R WCI   2
BLAINE         FAIR      19  18  93 W15       29.50R WCI   5
LAKEVILLE      MOCLDY    16  14  93 W15G22    29.54S WCI   1
EDEN PRAIRIE   CLOUDY    17  12  80 W14G23    29.54R HAZE    WCI   3
SOUTH ST PAUL  FAIR      19  15  85 W13G22    29.53S FOG     WCI   6
LAKE ELMO      CLOUDY    19  18  93 SW14      29.51R WCI   6
$$
MNZ001>005-007-008-013>017-022>024-027-028-251000-
   Northwest Minnesota

CITY           SKY/WX    TMP DP  RH WIND       PRES   REMARKS
BEMIDJI        CLOUDY    19  17  92 W10       29.40F WCI   7
HALLOCK        CLOUDY    18  16  93 NW3       29.49F
ROSEAU         LGT SNOW  19  16  86 N5        29.44F WCI  13
WARROAD        LGT SNOW  19  16  86 N6        29.43F WCI  11
THIEF RVR FALL FLURRIES  16  15  96 W6        29.47F WCI   7
CROOKSTON      MOCLDY    16  14  93 NW7       29.51S WCI   6
FOSSTON        CLOUDY    16  16 100 W5        29.46S WCI   9
DETROIT LAKES  CLOUDY    18  18 100 W8        29.47F WCI   7
MOORHEAD       CLOUDY    16  12  86 W5        29.53S WCI   9
PARK RAPIDS    CLOUDY    18  14  84 W10       29.42S WCI   6
MAHNOMEN       CLOUDY    17  15  93 W10       29.47S WCI   4
$$
MNZ006-009>011-018-025>026-251000-
   North Central Minnesota

CITY           SKY/WX    TMP DP  RH WIND       PRES   REMARKS
BAUDETTE       LGT SNOW  21  18  88 N10       29.38F FOG     WCI  10
FLAG ISLAND    LGT SNOW  19  18  93 N8        29.42F WCI   9
INTL FALLS     LGT SNOW  23  21  92 N7        29.34F FOG     WCI  15
WASKISH        LGT SNOW  21  19  93 NW5       29.38F WCI  15
LONGVILLE      CLOUDY    19  18  93 W6        29.40R WCI  11
GRAND RAPIDS   LGT SNOW  21  19  92 W9        29.36F FOG     WCI  11
CRANE LAKE     LGT SNOW  21  19  93 CALM      29.33F VSB 3/4
ORR            LGT SNOW  21  18  86 CALM      29.29F
COOK           LGT SNOW  21  19  93 CALM      29.30F VSB 3/4
WALKER         CLOUDY    18  16  90 W8        29.41S WCI   8
$$
MNZ012-019>021-037-251000-
   Northeast Minnesota

CITY           SKY/WX    TMP DP  RH WIND       PRES   REMARKS
DULUTH         LGT SNOW  27  25  92 SW6       29.28F VSB 3/4 WCI  20
ELY            LGT SNOW  25  25 100 CALM      29.27F
HIBBING        LGT SNOW  22  21  96 W3        29.30F FOG
EVELETH        LGT SNOW  25  23  93 W8        29.30F WCI  16
DULUTH HARBOR  LGT SNOW  28  28 100 CALM      29.32F
TWO HARBORS    MIX PCPN  30  27  86 CALM      29.26F
SILVER BAY     MIX PCPN  28  28 100 E3        29.26F
GRAND MARAIS     N/A     30  28  92 E20G26    29.30F WCI  17
G MARAIS ARPRT LGT SNOW  25  19  80 E9G17     29.24F WCI  15
$$
MNZ029>031-032-039>041-046>048-054>057-064-251000-
   West Central Minnesota

CITY           SKY/WX    TMP DP  RH WIND       PRES   REMARKS
FERGUS FALLS   CLOUDY    14  12  92 W7        29.53F WCI   4
WHEATON        CLEAR     12   9  85 W9        29.57S WCI   0
MORRIS         CLOUDY    16  14  93 W13       29.54S WCI   2
ALEXANDRIA     CLOUDY    15  14  95 W17       29.50S WCI  -1
ELBOW LAKE     CLOUDY    15  13  95 NW8       29.53F WCI   3
WADENA         CLOUDY    18  16  93 W10       29.46F WCI   6
GLENWOOD       FAIR      16  12  86 W16       29.51S WCI   0
APPLETON       CLEAR     10   7  85 W9        29.58S WCI  -2
BENSON         CLOUDY    16  10  79 W13       29.57S WCI   2
ORTONVILLE     CLEAR     12   9  85 CALM      29.58S
MADISON        CLEAR     14  10  85 W7        29.60S WCI   4
WILLMAR        CLOUDY    12  10  92 W14       29.58R WCI  -3
$$
MNZ033>034-036-042>043-049>051-058-059-251000-
   Central Minnesota

CITY           SKY/WX    TMP DP  RH WIND       PRES   REMARKS
ST CLOUD       CLOUDY    20  17  88 W18       29.49R WCI   5
SAUK CENTRE    CLOUDY    16  14  90 W10       29.50S WCI   4
PAYNESVILLE    CLOUDY    17  16  96 W14       29.52S FOG     WCI   2
AITKIN         CLOUDY    19  18  93 W7        29.38S WCI  10
PINE RIVER     LGT SNOW  18  16  93 W6        29.46S WCI   9
BRAINERD       CLOUDY    21  16  81 W12       29.43R WCI   9
STAPLES        FLURRIES  18  16  93 W13       29.45F WCI   4
LONG PRAIRIE   CLOUDY    18  16  93 SW16G24   29.49S WCI   3
LITTLE FALLS   CLOUDY    19  14  79 W10G16    29.47S WCI   8
LITCHFIELD     MOCLDY    16  14  93 W13G24    29.54S FOG     WCI   2
BUFFALO        CLOUDY    16  13  88 W15       29.54R FOG     WCI   2
MAPLE LAKE     CLOUDY    18  16  93 W13G20    29.53R FOG     WCI   4
HUTCHINSON     CLOUDY    15  13  90 W16       29.56S WCI   0
$$
MNZ037-044-045-052-053-251000-
   East Central Minnesota

CITY           SKY/WX    TMP DP  RH WIND       PRES   REMARKS
PRINCETON      CLOUDY    21  19  93 SW13      29.46R WCI   9
CAMBRIDGE      LGT SNOW  25  19  80 SW10G16   29.46R WCI  15
RUSH CITY      LGT SNOW  25  22  89 SW12      29.43R WCI  14
MOOSE LAKE     FLURRIES  25  21  86 W7        29.34F WCI  17
HINCKLEY       FLURRIES  27  23  86 W12       29.39S WCI  16
CLOQUET        LGT SNOW  25  23  93 W8        29.31F WCI  16
MCGREGOR       CLOUDY    23  23 100 W7        29.37S WCI  15
$$
MNZ071>073-080-081-089-090-097-098-251000-
   Southwest Minnesota

CITY           SKY/WX    TMP DP  RH WIND       PRES   REMARKS
MONTEVIDEO     CLEAR     14  12  92 NW10      29.58F WCI   1
GRANITE FALLS  CLEAR     16  13  88 SW17      29.62R WCI   0
CANBY          CLEAR     16  11  81 NW10      29.60F WCI   3
MARSHALL       CLEAR     15  11  83 W20       29.61S WCI  -2
REDWOOD FALLS  CLEAR     15  12  88 W13       29.60S WCI   1
OLIVIA         PTCLDY    16  12  86 W13       29.57F WCI   2
PIPESTONE      CLEAR      7   3  85 W8        29.63F WCI  -6
WORTHINGTON    CLEAR     13  10  88 W20       29.64S WCI  -5
JACKSON        CLOUDY    18  14  86 W16       29.64S FOG     WCI   3
TRACY          CLEAR     17  14  88 W16G22    29.61R FOG     WCI   1
SLAYTON        PTCLDY    14  11  89 W18G25    29.62F FOG     WCI  -3
$$
MNZ065>067-074>077-082>085-091>093-251000-
   South Central Minnesota

CITY           SKY/WX    TMP DP  RH WIND       PRES   REMARKS
MANKATO        CLOUDY    16  13  88 W17       29.61R WCI   0
NEW ULM        CLEAR     12  10  92 W14       29.61S WCI  -3
ST JAMES       CLEAR     16  12  86 SW16      29.64S FOG     WCI   0
FAIRMONT       PTCLDY    16  12  86 W22       29.66R WCI  -2
GLENCOE        CLOUDY    17  17 100 W16G23    29.56S FOG     WCI   1
FARIBAULT      CLOUDY    19  16  86 W16G23    29.58R WCI   5
OWATONNA       CLOUDY    18  16  93 W21       29.59R FOG     WCI   1
WASECA         FAIR      18  14  86 W18G25    29.62R FOG     WCI   2
ALBERT LEA     CLOUDY    18  16  93 W10G20    29.63R WCI   6
$$
MNZ078>079-086>088-094>096-251000-
   Southeast Minnesota

CITY           SKY/WX    TMP DP  RH WIND       PRES   REMARKS
ROCHESTER      CLOUDY    18  16  92 W21G31    29.56R FOG     WCI   1
RED WING       LGT SNOW  21  14  73 W16G30    29.54S WCI   7
STANTON        CLOUDY    21  17  83 W14G22    29.55S WCI   8
DODGE CENTER   CLOUDY    18  16  93 W20       29.57R FOG     WCI   1
WINONA         CLOUDY    23  19  86 W8G16     29.56S WCI  14
AUSTIN         CLOUDY    18  14  86 W16G23    29.62R WCI   3
PRESTON        CLOUDY    19  15  86 W14G22    29.58R FOG     WCI   5
$$
ABBREVIATIONS USED IN REMARKS
   TC - TEMPERATURES IN CELSIUS
  WCI - WIND CHILL INDEX
   HX - HEAT INDEX
  VSB - VISIBILITY
$$




USA.gov is the U.S. government's official web portal to all federal, state and local government web resources and services.